User: anonymous   Login
Location: Unspecified
(0.0000°N, 0.0000°E)
Time: 18:19:48
(UTC+00:00)
Language:

YUBILEINY - Orbit

View from above orbital plane
View from above orbital plane
View from above satellite
View from above satellite

Ground track
Ground track

The orbit data is extracted from the following two-line orbital elements,

1 32953U 08025A   18110.17100812  .00000035  00000-0  18131-3 0  9993
2 32953  82.5058  48.7541 0019044 340.3751  19.6594 12.43082919449563
Epoch (UTC): 20 April 2018 04:06:15
Eccentricity: 0.0019044
inclination: 82.5058°
perigee height: 1478 km
apogee height: 1508 km
right ascension of ascending node: 48.7541°
argument of perigee: 340.3751°
revolutions per day: 12.43082919
mean anomaly at epoch: 19.6594°
orbit number at epoch: 44956

The dashed part of the orbit path shows where the satellite is in the earth's shadow,  

DLR